Burnsville, North Carolina, United States (28714)
Lat: 35.92N, Lon: 82.3W
Wx Zone: NCZ049
Local Info
Past Weather Observations for Friday, March 27, 2015

NOTE: This archive is for the closest National Weather Service station to Burnsville. Information may differ from the station used for current weather conditions.

Click here for Long-term Archive

Time Weather Temperature Dewpoint Humidity Pressure Winds Precip Visibility
23:54
Overcast
34°F / 1°C 27°F / -3°C 75% 29.92 in
(1013 mb)
NNW 13.8 mph
(NNW 22 kph)
0.00 in
(0.00 mm)
10SM
22:54
Overcast
36°F / 2°C 27°F / -3°C 70% 29.92 in
(1013 mb)
NNW 11.5 mph
(NNW 19 kph)
0.00 in
(0.00 mm)
10SM
22:47
Overcast
36°F / 2°C 28°F / -2°C 75% 29.92 in
(1013 mb)
NNW 12.7 mph
(NNW 20 kph)
0.00 in
(0.00 mm)
10SM
22:27
Overcast
36°F / 2°C 28°F / -2°C 75% 29.92 in
(1013 mb)
NNW 9.2 mph
(NNW 15 kph)
0.00 in
(0.00 mm)
10SM
21:54
Overcast
Light Snow
36°F / 2°C 28°F / -2°C 75% 29.89 in
(1012 mb)
NNW 15 mph
(NNW 24 kph)
0.00 in
(0.00 mm)
9SM
21:27
Mostly Cloudy
36°F / 2°C 28°F / -2°C 75% 29.89 in
(1012 mb)
NNW 21.9 mph
(NNW 35 kph)
- 10SM
21:19
Overcast
37°F / 3°C 27°F / -3°C 65% 29.89 in
(1012 mb)
NNW 17.3 mph
(NNW 28 kph)
- 10SM
20:54
Mostly Cloudy
37°F / 3°C 27°F / -3°C 65% 29.89 in
(1012 mb)
NW 13.8 mph
(NW 22 kph)
- 10SM
19:54
Overcast
39°F / 4°C 27°F / -3°C 61% 29.83 in
(1010 mb)
NW 13.8 mph
(NW 22 kph)
- 10SM
18:54
Overcast
43°F / 6°C 27°F / -3°C 53% 29.8 in
(1009 mb)
NW 12.7 mph
(NW 20 kph)
- 10SM
17:54
Mostly Cloudy
45°F / 7°C 23°F / -5°C 42% 29.8 in
(1009 mb)
N 13.8 mph
(N 22 kph)
- 10SM
16:54
Clear
45°F / 7°C 25°F / -4°C 46% 29.77 in
(1008 mb)
N 19.6 mph
(N 32 kph)
- 10SM
15:54
Mostly Cloudy
46°F / 8°C 25°F / -4°C 43% 29.77 in
(1008 mb)
NNW 19.6 mph
(NNW 32 kph)
- 10SM
14:59
Mostly Cloudy
46°F / 8°C 28°F / -2°C 50% 29.77 in
(1008 mb)
N 18.4 mph
(N 30 kph)
- 10SM
14:54
Overcast
45°F / 7°C 28°F / -2°C 53% 29.77 in
(1008 mb)
N 23 mph
(N 37 kph)
- 10SM
13:54
Mostly Cloudy
45°F / 7°C 32°F / 0°C 61% 29.77 in
(1008 mb)
N 20.7 mph
(N 33 kph)
- 10SM
12:54
Overcast
45°F / 7°C 30°F / -1°C 57% 29.77 in
(1008 mb)
NNW 17.3 mph
(NNW 28 kph)
0.00 in
(0.00 mm)
10SM
11:54
Overcast
46°F / 8°C 34°F / 1°C 62% 29.77 in
(1008 mb)
N 18.4 mph
(N 30 kph)
0.00 in
(0.00 mm)
10SM
11:13
Overcast
45°F / 7°C 34°F / 1°C 66% 29.77 in
(1008 mb)
NNW 20.7 mph
(NNW 33 kph)
- 10SM
10:54
Overcast
45°F / 7°C 34°F / 1°C 66% 29.77 in
(1008 mb)
NNW 24.2 mph
(NNW 39 kph)
- 10SM
09:54
Overcast
43°F / 6°C 36°F / 2°C 76% 29.77 in
(1008 mb)
NNW 16.1 mph
(NNW 26 kph)
- 10SM
09:38
Overcast
43°F / 6°C 36°F / 2°C 76% 29.77 in
(1008 mb)
NNW 20.7 mph
(NNW 33 kph)
- 10SM
09:27
Overcast
43°F / 6°C 36°F / 2°C 76% 29.77 in
(1008 mb)
NNW 16.1 mph
(NNW 26 kph)
- 10SM
09:06
Overcast
43°F / 6°C 36°F / 2°C 76% 29.77 in
(1008 mb)
NNW 17.3 mph
(NNW 28 kph)
- 10SM
08:54
Overcast
43°F / 6°C 36°F / 2°C 76% 29.77 in
(1008 mb)
NNW 19.6 mph
(NNW 32 kph)
0.00 in
(0.00 mm)
10SM
08:52
Overcast
43°F / 6°C 36°F / 2°C 76% 29.77 in
(1008 mb)
NNW 19.6 mph
(NNW 32 kph)
0.00 in
(0.00 mm)
10SM
08:24
Overcast
43°F / 6°C 36°F / 2°C 76% 29.77 in
(1008 mb)
NNW 18.4 mph
(NNW 30 kph)
0.00 in
(0.00 mm)
10SM
07:54
Overcast
41°F / 5°C 36°F / 2°C 81% 29.77 in
(1008 mb)
N 12.7 mph
(N 20 kph)
0.00 in
(0.00 mm)
10SM
06:54
Overcast
43°F / 6°C 37°F / 3°C 81% 29.77 in
(1008 mb)
N 10.4 mph
(N 17 kph)
0.03 in
(0.76 mm)
10SM
05:54
Overcast
Light Rain
43°F / 6°C 39°F / 4°C 87% 29.71 in
(1006 mb)
N 11.5 mph
(N 19 kph)
0.02 in
(0.51 mm)
10SM
05:41
Overcast
Light Rain
43°F / 6°C 39°F / 4°C 87% 29.74 in
(1007 mb)
NNW 11.5 mph
(NNW 19 kph)
0.01 in
(0.25 mm)
10SM
05:16
Overcast
Light Rain
43°F / 6°C 39°F / 4°C 87% 29.71 in
(1006 mb)
NNW 15 mph
(NNW 24 kph)
0.00 in
(0.00 mm)
10SM
04:54
Overcast
Light Rain
45°F / 7°C 37°F / 3°C 76% 29.71 in
(1006 mb)
N 16.1 mph
(N 26 kph)
0.00 in
(0.00 mm)
10SM
04:24
Overcast
Light Rain
45°F / 7°C 39°F / 4°C 81% 29.74 in
(1007 mb)
N 19.6 mph
(N 32 kph)
0.00 in
(0.00 mm)
10SM
03:54
Overcast
45°F / 7°C 39°F / 4°C 81% 29.71 in
(1006 mb)
N 13.8 mph
(N 22 kph)
- 10SM
02:54
Overcast
45°F / 7°C 41°F / 5°C 87% 29.74 in
(1007 mb)
NNW 13.8 mph
(NNW 22 kph)
0.01 in
(0.25 mm)
10SM
01:54
Overcast
Light Rain
46°F / 8°C 43°F / 6°C 87% 29.77 in
(1008 mb)
NNW 17.3 mph
(NNW 28 kph)
0.02 in
(0.51 mm)
10SM
01:17
Overcast
Light Rain
46°F / 8°C 43°F / 6°C 87% 29.77 in
(1008 mb)
N 15 mph
(N 24 kph)
0.00 in
(0.00 mm)
9SM
00:54
Overcast
Light Rain
48°F / 9°C 41°F / 5°C 76% 29.77 in
(1008 mb)
N 19.6 mph
(N 32 kph)
0.00 in
(0.00 mm)
10SM
00:07
Overcast
50°F / 10°C 43°F / 6°C 76% 29.77 in
(1008 mb)
N 20.7 mph
(N 33 kph)
- 10SM
Time Weather Temperature Dewpoint Humidity Pressure Winds Precip Visibility


Weather for websites

WeatherForYou.com, LLC is not responsible for any damages or problems caused by this service. Current weather conditions are obtained from the closest station including government and personal stations which may have varying degrees of accuracy. Weather forecasts are derived from the NOAA NDFD. Like all things, this site belongs to Jesus Christ... He just trusts me to maintain it. If you have any questions or comments email webmaster@weatherforyou.com

Copyright © 2015, WeatherForYou.com LLC. All rights reserved.